Location: *
(44.1392°N, 4.8079°E)
Time: 17:13:08
(UTC+00:00)

SL-16 R/B - Pass Details

Date: 21 June 2021
Orbit: 985 x 1007 km, 99.5° (Epoch: 04 August)

Event Time Altitude Azimuth Distance (km) Brightness Sun altitude
Exits shadow 01:31:07 21° 171° (S) 2,043 3.7 -18.0°
Maximum altitude 01:35:23 78° 255° (WSW) 1,017 2.5 -17.7°
Drops below altitude 10° 01:41:36 10° 342° (NNW) 2,758 5.5 -17.1°
Sets 01:44:05 0° 344° (NNW) 3,708 6.2 -16.9°
